When you browse on this site, cookies collect data to enhance your experience and personalize the content and advertising you see.
Visit our Privacy Policy to learn more. By continuing to use the site, you agree to this use of cookies and data.
  • In Romania
  • List of Countries
  • For 7 days
  • Water Temperature
  • Weather Map
  • Weather Widgets
  • user-avatar
    Login

    Hourly Weather Słupsk

    Today, 13 December, Friday

    Time Temperature Precipitation Wind Pressure Humidity
    00:00 -1°C° 0 mm 4 mps 748 mmHg 92%
    01:00 -1°C° 0 mm 4 mps 747 mmHg 93%
    02:00 -1°C° 0 mm 5 mps 747 mmHg 90%
    03:00 -1°C° 0 mm 5 mps 746 mmHg 87%
    04:00 -1°C° 0 mm 5 mps 745 mmHg 84%
    05:00 -1°C° 0 mm 5 mps 745 mmHg 81%
    06:00 -1°C° 0 mm 5 mps 744 mmHg 77%
    07:00 -1°C° 0 mm 5 mps 743 mmHg 71%
    08:00 -1°C° 0 mm 5 mps 743 mmHg 77%
    09:00 0°C° 0 mm 5 mps 742 mmHg 82%
    10:00 +1°C° 0 mm 5 mps 741 mmHg 87%
    11:00 +1°C° 0 mm 5 mps 741 mmHg 86%
    12:00 +1°C° 0 mm 6 mps 740 mmHg 84%
    13:00 +1°C° 0 mm 6 mps 740 mmHg 83%
    14:00 +1°C° 0.1 mm 5 mps 739 mmHg 86%
    15:00 +1°C° 0.1 mm 5 mps 739 mmHg 90%
    16:00 +1°C° 0.1 mm 4 mps 738 mmHg 94%
    17:00 +1°C° 0.1 mm 4 mps 738 mmHg 94%
    18:00 +1°C° 0.1 mm 4 mps 738 mmHg 95%
    19:00 +1°C° 0.1 mm 4 mps 738 mmHg 96%
    20:00 +1°C° 0.1 mm 4 mps 738 mmHg 93%
    21:00 +1°C° 0.1 mm 4 mps 738 mmHg 91%
    22:00 0°C° 0.1 mm 4 mps 738 mmHg 89%
    23:00 0°C° 0 mm 5 mps 738 mmHg 88%

    Tomorrow, 14 December, Saturday

    Time Temperature Precipitation Wind Pressure Humidity
    00:00 -1°C° 0 mm 5 mps 739 mmHg 88%
    01:00 -1°C° 0 mm 5 mps 739 mmHg 88%
    02:00 -1°C° 0 mm 5 mps 738 mmHg 87%
    03:00 -1°C° 0 mm 5 mps 738 mmHg 86%
    04:00 -1°C° 0 mm 5 mps 738 mmHg 85%
    05:00 -2°C° 0 mm 6 mps 738 mmHg 86%
    06:00 -1°C° 0 mm 6 mps 738 mmHg 87%
    07:00 -1°C° 0 mm 6 mps 738 mmHg 88%
    08:00 +1°C° 0.1 mm 6 mps 738 mmHg 89%
    09:00 +1°C° 0.1 mm 6 mps 738 mmHg 91%
    10:00 +1°C° 0.1 mm 6 mps 738 mmHg 92%
    11:00 +2°C° 0.1 mm 6 mps 738 mmHg 91%
    12:00 +2°C° 0.1 mm 6 mps 739 mmHg 91%
    13:00 +2°C° 0.1 mm 6 mps 739 mmHg 91%
    14:00 +2°C° 0 mm 6 mps 739 mmHg 88%
    15:00 +2°C° 0 mm 5 mps 739 mmHg 85%
    16:00 +2°C° 0 mm 5 mps 740 mmHg 82%
    17:00 +2°C° 0.1 mm 5 mps 740 mmHg 86%
    18:00 +1°C° 0.1 mm 5 mps 740 mmHg 91%
    19:00 +1°C° 0.1 mm 5 mps 740 mmHg 96%
    20:00 +1°C° 0.3 mm 6 mps 741 mmHg 94%
    21:00 +1°C° 0.3 mm 8 mps 741 mmHg 93%
    22:00 +1°C° 0.3 mm 9 mps 742 mmHg 92%
    23:00 +1°C° 0.1 mm 9 mps 743 mmHg 85%

    Day after tomorrow, 15 December, Sunday

    Time Temperature Precipitation Wind Pressure Humidity
    00:00 +1°C° 0.1 mm 9 mps 743 mmHg 78%
    01:00 +1°C° 0.1 mm 9 mps 744 mmHg 72%
    02:00 +1°C° 0.1 mm 8 mps 745 mmHg 77%
    03:00 0°C° 0.1 mm 8 mps 745 mmHg 82%
    04:00 0°C° 0.1 mm 8 mps 746 mmHg 87%
    05:00 0°C° 0 mm 7 mps 746 mmHg 86%
    06:00 -1°C° 0 mm 7 mps 747 mmHg 84%
    07:00 -1°C° 0 mm 6 mps 747 mmHg 83%
    08:00 -1°C° 0 mm 6 mps 747 mmHg 78%
    09:00 0°C° 0 mm 7 mps 747 mmHg 74%
    10:00 0°C° 0 mm 7 mps 747 mmHg 70%
    11:00 +2°C° 0.3 mm 7 mps 746 mmHg 76%
    12:00 +2°C° 0.3 mm 8 mps 746 mmHg 82%
    13:00 +2°C° 0.3 mm 8 mps 745 mmHg 87%
    14:00 +4°C° 0.1 mm 8 mps 746 mmHg 82%
    15:00 +4°C° 0.1 mm 8 mps 747 mmHg 77%
    16:00 +4°C° 0.1 mm 8 mps 747 mmHg 72%
    17:00 +2°C° 0 mm 8 mps 748 mmHg 72%
    18:00 +2°C° 0 mm 8 mps 750 mmHg 72%
    19:00 +1°C° 0 mm 8 mps 751 mmHg 72%
    20:00 +2°C° 0 mm 7 mps 751 mmHg 73%
    21:00 +2°C° 0 mm 7 mps 752 mmHg 74%
    22:00 +2°C° 0 mm 7 mps 752 mmHg 74%
    23:00 +2°C° 0 mm 7 mps 753 mmHg 76%

    16 December, Monday

    Time Temperature Precipitation Wind Pressure Humidity
    00:00 +1°C° 0 mm 6 mps 753 mmHg 79%
    01:00 +1°C° 0 mm 6 mps 753 mmHg 81%
    02:00 +1°C° 0 mm 6 mps 754 mmHg 81%
    03:00 +1°C° 0 mm 6 mps 754 mmHg 82%
    04:00 +1°C° 0 mm 6 mps 755 mmHg 82%
    05:00 +1°C° 0 mm 6 mps 755 mmHg 83%
    06:00 +1°C° 0 mm 6 mps 755 mmHg 84%
    07:00 +1°C° 0 mm 6 mps 755 mmHg 85%
    08:00 +2°C° 0 mm 6 mps 756 mmHg 84%
    09:00 +2°C° 0 mm 6 mps 756 mmHg 84%
    10:00 +2°C° 0 mm 5 mps 757 mmHg 83%
    11:00 +3°C° 0 mm 5 mps 757 mmHg 81%
    12:00 +4°C° 0 mm 4 mps 757 mmHg 78%
    13:00 +4°C° 0 mm 4 mps 757 mmHg 75%
    14:00 +4°C° 0 mm 4 mps 756 mmHg 79%
    15:00 +4°C° 0 mm 4 mps 756 mmHg 83%
    16:00 +4°C° 0 mm 4 mps 756 mmHg 87%
    17:00 +3°C° 0 mm 5 mps 756 mmHg 88%
    18:00 +3°C° 0 mm 5 mps 756 mmHg 88%
    19:00 +5°C° 0 mm 5 mps 756 mmHg 88%
    20:00 +5°C° 0.1 mm 5 mps 755 mmHg 86%
    21:00 +6°C° 0.1 mm 5 mps 755 mmHg 84%
    22:00 +6°C° 0.1 mm 5 mps 755 mmHg 81%
    23:00 +6°C° 0 mm 5 mps 755 mmHg 82%

    17 December, Tuesday

    Time Temperature Precipitation Wind Pressure Humidity
    00:00 +6°C° 0 mm 5 mps 754 mmHg 82%
    01:00 +5°C° 0 mm 5 mps 754 mmHg 82%
    02:00 +5°C° 0 mm 5 mps 754 mmHg 82%
    03:00 +4°C° 0 mm 6 mps 754 mmHg 83%
    04:00 +4°C° 0 mm 6 mps 753 mmHg 83%
    05:00 +4°C° 0 mm 6 mps 753 mmHg 84%
    06:00 +4°C° 0 mm 6 mps 753 mmHg 85%
    07:00 +4°C° 0 mm 6 mps 753 mmHg 86%
    08:00 +5°C° 0 mm 5 mps 753 mmHg 84%
    09:00 +5°C° 0 mm 5 mps 753 mmHg 83%
    10:00 +5°C° 0 mm 5 mps 754 mmHg 81%
    11:00 +6°C° 0 mm 5 mps 754 mmHg 78%
    12:00 +7°C° 0 mm 5 mps 753 mmHg 76%
    13:00 +8°C° 0 mm 5 mps 753 mmHg 73%
    14:00 +7°C° 0 mm 5 mps 753 mmHg 75%
    15:00 +7°C° 0 mm 4 mps 753 mmHg 77%
    16:00 +6°C° 0 mm 4 mps 753 mmHg 79%
    17:00 +6°C° 0 mm 4 mps 753 mmHg 79%
    18:00 +6°C° 0 mm 4 mps 754 mmHg 79%
    19:00 +6°C° 0 mm 4 mps 754 mmHg 79%
    20:00 +6°C° 0 mm 4 mps 754 mmHg 81%
    21:00 +5°C° 0 mm 3 mps 754 mmHg 82%
    22:00 +5°C° 0 mm 3 mps 754 mmHg 83%
    23:00 +5°C° 0 mm 3 mps 754 mmHg 83%

    18 December, Wednesday

    Time Temperature Precipitation Wind Pressure Humidity
    00:00 +5°C° 0 mm 3 mps 754 mmHg 83%
    01:00 +5°C° 0 mm 3 mps 754 mmHg 83%
    02:00 +5°C° 0 mm 3 mps 754 mmHg 84%
    03:00 +5°C° 0 mm 3 mps 754 mmHg 85%
    04:00 +5°C° 0 mm 3 mps 755 mmHg 86%
    05:00 +5°C° 0 mm 3 mps 755 mmHg 86%
    06:00 +5°C° 0 mm 3 mps 755 mmHg 87%
    07:00 +5°C° 0 mm 3 mps 755 mmHg 87%
    08:00 +5°C° 0 mm 3 mps 756 mmHg 87%
    09:00 +5°C° 0 mm 3 mps 756 mmHg 86%
    10:00 +7°C° 0 mm 3 mps 756 mmHg 86%
    11:00 +7°C° 0 mm 3 mps 757 mmHg 86%
    12:00 +7°C° 0 mm 3 mps 757 mmHg 87%
    13:00 +8°C° 0 mm 3 mps 757 mmHg 87%
    14:00 +7°C° 0.1 mm 3 mps 757 mmHg 90%
    15:00 +7°C° 0.1 mm 3 mps 758 mmHg 92%
    16:00 +5°C° 0.1 mm 3 mps 758 mmHg 95%
    17:00 +6°C° 0 mm 2 mps 758 mmHg 95%
    18:00 +5°C° 0 mm 2 mps 759 mmHg 94%
    19:00 +5°C° 0 mm 2 mps 759 mmHg 94%
    20:00 +5°C° 0 mm 2 mps 759 mmHg 94%
    21:00 +4°C° 0 mm 2 mps 760 mmHg 94%
    22:00 +5°C° 0 mm 1 mps 760 mmHg 93%
    23:00 +5°C° 0 mm 1 mps 760 mmHg 93%
    Show more